Cambridge, MN

4:01 PM CDT on March 23, 2017 (GMT -0500)
Cambridge Municipal

Weather History for KCBG - March, 2013

Change the Weather History Date:

Friday, March 15, 2013

  Actual Average Record
Temperature  
Mean Temperature 26 °F -  
Max Temperature 32 °F 37 °F 68 °F (2015)
Min Temperature 21 °F 16 °F -13 °F (1956)
Degree Days  
Heating Degree Days 38    
Moisture  
Dew Point 25 °F    
Average Humidity 87    
Maximum Humidity 93    
Minimum Humidity 80    
Precipitation  
Precipitation 0.05 in - - ()
Sea Level Pressure  
Sea Level Pressure 29.91 in    
Wind  
Wind Speed 3 mph (NE)    
Max Wind Speed 12 mph    
Max Gust Speed 16 mph    
Visibility 5 miles    
Events Snow    
Averages and records for this station are not official NWS values.
T = Trace of Precipitation, MM = Missing Value Source: NWS Daily Summary

Daily Weather History Graph

Daily Weather History Graph

Search for Another Location

Airport or City:

Trip Planner

Search our weather history database for the weather conditions in past years. The results will help you decide how hot, cold, wet, or windy it might be!

Date:

Astronomy

Mar. 15, 2013 Rise Set
Actual Time 7:25 AM CDT 7:19 PM CDT
Civil Twilight 6:55 AM CDT 7:48 PM CDT
Nautical Twilight 6:21 AM CDT 8:23 PM CDT
Astronomical Twilight 5:45 AM CDT 8:58 PM CDT
Moon 9:02 AM CDT (3/15) 11:48 PM CDT (3/15)
Length of Visible Light 12h 53m
Length of Day
11h 54m
Waxing Crescent, 15% of the Moon is Illuminated
Mar 15
Waxing Crescent
Mar 19
First Quarter
Mar 27
Full
Apr 2
Last Quarter
Apr 10
New

Hourly Weather History & Observations

Time (CDT) Temp. Windchill Dew Point Humidity Pressure Visibility Wind Dir Wind Speed Gust Speed Precip Events Conditions
12:16 AM 28.4 °F - 24.8 °F 86% 29.98 in 10.0 mi Calm Calm - N/A   Clear
12:36 AM 28.4 °F - 24.8 °F 86% 29.97 in 10.0 mi Calm Calm - N/A   Clear
12:55 AM 28.4 °F - 24.8 °F 86% 29.97 in 10.0 mi Calm Calm - N/A   Clear
1:16 AM 28.4 °F - 24.8 °F 86% 29.96 in 7.0 mi Calm Calm - N/A   Clear
1:36 AM 28.4 °F - 24.8 °F 86% 29.95 in 7.0 mi Calm Calm - N/A   Clear
1:55 AM 28.4 °F - 24.8 °F 86% 29.94 in 7.0 mi Calm Calm - N/A   Mostly Cloudy
2:16 AM 28.4 °F - 24.8 °F 86% 29.94 in 7.0 mi Calm Calm - N/A   Scattered Clouds
2:36 AM 28.4 °F - 24.8 °F 86% 29.94 in 7.0 mi Calm Calm - N/A   Scattered Clouds
2:56 AM 28.4 °F - 26.6 °F 93% 29.93 in 7.0 mi Calm Calm - N/A   Mostly Cloudy
3:15 AM 30.2 °F - 26.6 °F 86% 29.95 in 7.0 mi Calm Calm - N/A   Mostly Cloudy
3:36 AM 30.2 °F - 26.6 °F 86% 29.95 in 7.0 mi Calm Calm - N/A   Mostly Cloudy
3:55 AM 30.2 °F 26.7 °F 26.6 °F 86% 29.95 in 7.0 mi West 3.5 mph - N/A   Mostly Cloudy
4:15 AM 30.2 °F 26.7 °F 26.6 °F 86% 29.95 in 7.0 mi WNW 3.5 mph - N/A Snow Light Snow
4:36 AM 30.2 °F 26.7 °F 26.6 °F 86% 29.95 in 7.0 mi West 3.5 mph - N/A Snow Light Snow
4:55 AM 30.2 °F 25.4 °F 26.6 °F 86% 29.95 in 3.0 mi NW 4.6 mph - N/A Snow Light Snow
5:15 AM 30.2 °F - 26.6 °F 86% 29.94 in 2.0 mi North - - N/A Snow Light Snow
5:36 AM 30.2 °F - 26.6 °F 86% 29.93 in 2.0 mi Calm Calm - N/A Snow Light Snow
5:56 AM 30.2 °F 26.7 °F 26.6 °F 86% 29.93 in 1.5 mi North 3.5 mph - N/A Snow Light Snow
6:15 AM 30.2 °F - 28.4 °F 93% 29.93 in 1.5 mi Calm Calm - N/A Snow Light Snow
6:35 AM 30.2 °F 25.4 °F 28.4 °F 93% 29.93 in 1.5 mi North 4.6 mph - N/A Snow Light Snow
6:55 AM 30.2 °F 26.7 °F 28.4 °F 93% 29.93 in 1.2 mi North 3.5 mph - N/A Snow Light Snow
7:15 AM 30.2 °F - 28.4 °F 93% 29.93 in 1.2 mi Calm Calm - N/A Snow Light Snow
7:36 AM 30.2 °F 26.7 °F 28.4 °F 93% 29.93 in 0.8 mi NNE 3.5 mph - N/A Snow Light Snow
7:55 AM 30.2 °F - 28.4 °F 93% 29.93 in 0.5 mi Calm Calm - N/A Snow Light Snow
8:15 AM 30.2 °F - 28.4 °F 93% 29.93 in 0.8 mi Calm Calm - N/A Snow Light Snow
8:35 AM 30.2 °F 25.4 °F 28.4 °F 93% 29.93 in 0.8 mi NNE 4.6 mph - N/A Snow Light Snow
8:56 AM 30.2 °F 26.7 °F 28.4 °F 93% 29.93 in 0.8 mi NNE 3.5 mph - N/A Snow Light Snow
9:16 AM 30.2 °F 25.4 °F 28.4 °F 93% 29.93 in 1.0 mi NNE 4.6 mph - N/A Snow Light Snow
9:35 AM 30.2 °F 22.6 °F 28.4 °F 93% 29.93 in 2.5 mi NNE 8.1 mph - N/A Snow Light Snow
9:55 AM 30.2 °F 24.3 °F 28.4 °F 93% 29.93 in 2.5 mi NNE 5.8 mph - N/A Snow Light Snow
10:16 AM 32.0 °F 26.4 °F 28.4 °F 87% 29.93 in 4.0 mi NE 5.8 mph - N/A Snow Light Snow
10:35 AM 32.0 °F 24.8 °F 28.4 °F 87% 29.93 in 1.8 mi NE 8.1 mph - N/A Snow Light Snow
10:56 AM 30.2 °F 21.3 °F 28.4 °F 93% 29.92 in 4.0 mi NE 10.4 mph 16.1 mph N/A Snow Light Snow
11:16 AM 32.0 °F 26.4 °F 28.4 °F 87% 29.91 in 10.0 mi NE 5.8 mph - N/A Snow Light Snow
11:35 AM 32.0 °F 23.6 °F 26.6 °F 80% 29.90 in 10.0 mi NE 10.4 mph - 0.02 in Snow Light Snow
11:56 AM 32.0 °F 24.8 °F 26.6 °F 80% 29.91 in 10.0 mi ENE 8.1 mph - N/A   Mostly Cloudy
12:16 PM 32.0 °F 25.6 °F 26.6 °F 80% 29.92 in 10.0 mi NNE 6.9 mph - 0.01 in   Overcast
12:35 PM 32.0 °F 24.8 °F 26.6 °F 80% 29.91 in 10.0 mi NE 8.1 mph - 0.02 in Snow Light Snow
12:55 PM 32.0 °F 24.8 °F 26.6 °F 80% 29.91 in 7.0 mi NE 8.1 mph - 0.02 in Snow Light Snow
1:16 PM 30.2 °F 22.6 °F 26.6 °F 86% 29.92 in 5.0 mi NE 8.1 mph - N/A Snow Light Snow
1:35 PM 30.2 °F 22.6 °F 26.6 °F 86% 29.92 in 7.0 mi NE 8.1 mph - N/A Snow Light Snow
1:56 PM 30.2 °F 23.4 °F 26.6 °F 86% 29.91 in 10.0 mi NE 6.9 mph - N/A   Overcast
2:16 PM 30.2 °F 22.6 °F 24.8 °F 80% 29.91 in 10.0 mi NE 8.1 mph - 0.01 in   Overcast
2:35 PM 30.2 °F 23.4 °F 24.8 °F 80% 29.90 in 10.0 mi NE 6.9 mph - 0.01 in   Overcast
2:56 PM 30.2 °F 23.4 °F 24.8 °F 80% 29.89 in 10.0 mi NE 6.9 mph - N/A   Overcast
3:16 PM 30.2 °F 26.7 °F 24.8 °F 80% 29.88 in 10.0 mi NE 3.5 mph - N/A   Overcast
3:35 PM 30.2 °F 24.3 °F 24.8 °F 80% 29.88 in 10.0 mi ENE 5.8 mph - N/A   Overcast
3:56 PM 30.2 °F 24.3 °F 24.8 °F 80% 29.87 in 10.0 mi ENE 5.8 mph - N/A   Overcast
4:16 PM 30.2 °F 25.4 °F 24.8 °F 80% 29.86 in 10.0 mi ENE 4.6 mph - N/A   Overcast
4:35 PM 30.2 °F 21.9 °F 24.8 °F 80% 29.86 in 10.0 mi ENE 9.2 mph - N/A   Overcast
4:56 PM 30.2 °F 25.4 °F 24.8 °F 80% 29.86 in 7.0 mi NE 4.6 mph - N/A Snow Light Snow
5:16 PM 30.2 °F 23.4 °F 24.8 °F 80% 29.85 in 3.0 mi ENE 6.9 mph - N/A Snow Light Snow
5:35 PM 28.4 °F 21.2 °F 24.8 °F 86% 29.86 in 4.0 mi NE 6.9 mph - N/A Snow Light Snow
5:56 PM 28.4 °F 21.2 °F 24.8 °F 86% 29.86 in 2.5 mi NNE 6.9 mph - N/A Snow Light Snow
6:15 PM 28.4 °F 20.4 °F 24.8 °F 86% 29.85 in 2.0 mi NE 8.1 mph - N/A Snow Light Snow
6:35 PM 26.6 °F 21.2 °F 24.8 °F 93% 29.86 in 1.2 mi NNE 4.6 mph - N/A Snow Light Snow
6:56 PM 26.6 °F 21.2 °F 24.8 °F 93% 29.87 in 0.5 mi NE 4.6 mph - N/A Snow Snow
7:15 PM 24.8 °F 14.6 °F 23.0 °F 93% 29.87 in 0.8 mi NE 10.4 mph 16.1 mph N/A Snow Light Snow
7:35 PM 24.8 °F 16.9 °F 21.2 °F 86% 29.87 in 1.0 mi NE 6.9 mph - N/A Snow Light Snow
7:56 PM 24.8 °F 15.3 °F 21.2 °F 86% 29.88 in 1.0 mi NNE 9.2 mph 16.1 mph N/A Snow Snow
8:15 PM 23.0 °F 13.9 °F 21.2 °F 93% 29.87 in 2.5 mi NE 8.1 mph - N/A Snow Light Snow
8:36 PM 23.0 °F 11.7 °F 19.4 °F 86% 29.88 in 1.8 mi NNE 11.5 mph - N/A Snow Light Snow
8:56 PM 21.2 °F 10.1 °F 19.4 °F 93% 29.89 in 2.5 mi NE 10.4 mph - N/A Snow Light Snow
9:15 PM 21.2 °F 10.9 °F 19.4 °F 93% 29.89 in 2.0 mi NNE 9.2 mph - N/A Snow Light Snow
9:36 PM 21.2 °F 12.6 °F 19.4 °F 93% 29.90 in 2.0 mi NNE 6.9 mph - N/A Snow Light Snow
9:56 PM 21.2 °F 13.6 °F 19.4 °F 93% 29.90 in 3.0 mi NNE 5.8 mph - N/A Snow Light Snow
10:15 PM 21.2 °F 13.6 °F 19.4 °F 93% 29.90 in 2.5 mi NE 5.8 mph - N/A Snow Light Snow
10:36 PM 21.2 °F 13.6 °F 17.6 °F 86% 29.91 in 7.0 mi NNE 5.8 mph - N/A Snow Light Snow
10:56 PM 21.2 °F 12.6 °F 17.6 °F 86% 29.92 in 10.0 mi NE 6.9 mph - N/A Snow Light Snow
11:14 PM 21.2 °F 10.9 °F 17.6 °F 86% 29.92 in 10.0 mi NNE 9.2 mph - N/A Snow Light Snow
11:36 PM 21.2 °F 12.6 °F 17.6 °F 86% 29.91 in 10.0 mi NNE 6.9 mph - N/A Snow Light Snow
11:56 PM 21.2 °F - 17.6 °F 86% 29.91 in 10.0 mi Calm Calm - N/A Snow Light Snow